User: anonymous   Login
Location: Bittelbronn
(48.4454°N, 8.5870°E)
Time: 08:34:40
(UTC+00:00)
Language:

BREEZE-M R/B - Orbit

View from above orbital plane
View from above orbital plane
View from above satellite
View from above satellite

Ground track
Ground track

The orbit data is extracted from the following two-line orbital elements,

1 32709U 08011B   24197.28480627  .00000474  00000-0  43573-2 0  9990
2 32709  48.9201 209.1185 6480891  41.0658 352.9014  3.07965199124531
Epoch (UTC): 15 July 2024 06:50:07
Eccentricity: 0.6480891
inclination: 48.9201°
perigee height: 644 km
apogee height: 26510 km
right ascension of ascending node: 209.1185°
argument of perigee: 41.0658°
revolutions per day: 3.07965199
mean anomaly at epoch: 352.9014°
orbit number at epoch: 12453

The dashed part of the orbit path shows where the satellite is in the earth's shadow,  

DLR